Wind_Speed
9 8 8 9 9 10 10 10 10 11 12 12 12 11 12 12 11 11 12 12 12 12 12 12 12 11 11 11 11 11 11 10 10 10 10 10 10 10 11 12 12 13 13 15
10 10 9 10 10 10 11 11 12 13 14 14 14 14 14 13 12 12 12 12 12 12 12 12 12 12 12 12 12 12 12 12 11 11 12 12 12 13 14 14 14 15 16 17
11 11 11 10 10 11 12 12 13 13 14 15 15 15 15 14 13 13 13 13 13 13 13 13 13 13 13 13 14 13 13 13 13 13 13 14 15 15 15 16 16 17 18 19
13 12 12 11 12 13 13 13 13 14 15 15 16 16 15 15 14 14 13 14 14 14 14 14 14 14 14 14 14 14 14 14 14 15 16 16 17 17 17 18 19 19 20 21
15 14 14 13 14 14 14 14 14 14 14 15 15 16 16 15 15 15 14 14 15 15 15 15 15 15 16 16 16 15 15 15 16 16 17 18 18 18 19 20 20 21 22 23
17 16 15 15 16 15 15 15 16 15 15 15 15 16 16 15 16 16 16 15 16 16 16 17 17 17 17 17 17 16 17 17 18 18 19 20 20 20 21 22 22 23 24 25
18 18 17 18 18 16 16 17 17 16 16 16 17 17 16 16 17 16 16 16 16 16 17 17 17 17 17 17 18 19 19 19 20 20 21 21 22 23 24 24 25 26 26 27
20 20 20 21 20 19 19 19 19 18 18 18 18 18 18 18 18 17 17 18 18 18 18 18 18 18 19 19 20 21 21 21 22 22 23 24 24 25 26 26 27 28 28 29
22 23 23 22 22 21 20 21 20 20 19 19 20 19 19 19 19 19 19 19 19 19 19 20 20 20 21 22 22 22 23 23 23 24 25 26 26 27 27 28 29 29 30 31
24 24 24 24 24 23 22 22 21 20 20 20 20 20 19 19 19 19 19 20 20 20 20 21 21 22 23 23 24 24 24 25 26 26 27 27 28 29 29 30 31 32 33 34
25 25 26 26 26 25 24 23 23 22 22 21 21 21 20 20 20 21 21 21 21 22 22 22 22 23 24 25 25 26 26 27 28 28 29 30 30 31 32 33 35 35 36 37
27 27 28 28 27 26 25 25 24 24 23 23 23 22 22 22 22 22 22 22 23 23 24 24 25 25 26 27 28 28 29 29 30 31 31 32 33 34 35 36 37 38 39 40
30 30 30 29 29 28 27 27 26 25 25 24 24 24 24 24 24 24 24 24 25 25 26 27 27 28 29 30 30 31 32 33 33 34 34 35 36 37 38 39 40 41 42 42
31 31 31 31 30 29 28 28 28 27 27 26 26 26 26 26 26 26 27 27 27 28 28 29 30 30 31 32 33 33 34 35 36 36 37 38 39 40 41 42 42 43 43 44
31 31 32 31 31 30 30 30 30 30 29 29 29 29 29 29 29 29 29 30 30 30 31 32 32 33 33 34 35 36 36 37 38 38 39 40 42 42 43 44 45 45 45 45
32 32 32 32 31 31 32 32 31 31 31 31 31 31 31 31 31 31 32 32 32 33 34 34 35 35 36 37 38 38 39 40 40 41 42 43 44 45 45 46 47 47 47 47
33 32 32 32 32 33 33 34 33 33 33 33 32 32 33 33 33 34 34 35 35 36 36 37 37 38 39 40 40 41 42 42 43 44 45 45 46 47 47 48 48 48 49 49
34 34 34 34 34 34 34 34 34 34 34 34 34 35 35 36 36 36 37 38 38 39 39 39 40 41 42 42 43 44 44 45 46 47 48 48 48 49 50 50 50 51 51 52
36 36 36 36 36 36 36 35 35 36 36 37 37 37 38 38 38 39 40 40 41 41 42 42 43 44 44 45 45 46 46 47 48 49 49 50 50 51 51 52 52 53 54 54
37 38 38 38 38 38 38 38 37 38 38 38 39 39 40 40 40 41 41 42 43 44 44 45 45 45 46 46 47 47 48 49 49 49 50 51 51 52 53 53 53 54 55 56
38 38 38 38 38 39 39 39 39 39 40 40 41 41 42 42 43 43 43 44 45 45 46 46 46 47 47 48 48 49 50 51 51 52 52 53 53 54 54 55 55 56 56 57
38 38 39 39 39 39 40 40 40 41 41 42 43 43 44 45 45 45 45 46 46 47 47 47 48 49 50 50 51 52 52 53 54 54 55 55 55 56 56 56 56 56 56 56
39 39 39 39 40 40 41 41 41 42 42 43 44 44 45 45 46 47 47 47 47 48 48 49 50 51 52 52 53 54 55 55 56 56 56 56 56 56 56 56 56 56 56 57
39 38 38 39 39 40 41 42 42 43 43 43 44 44 45 46 46 46 47 47 48 49 50 51 51 52 53 54 54 55 55 56 56 56 56 55 55 56 56 56 56 56 56 57
39 39 40 40 40 41 42 42 43 43 44 44 45 45 46 47 47 48 48 49 50 50 51 52 52 53 54 54 54 55 55 55 55 55 55 55 55 55 56 56 56 56 56 57
39 40 40 41 42 42 42 43 44 44 45 45 46 46 47 48 49 49 49 50 50 51 51 52 52 53 53 54 54 55 55 55 55 55 55 55 55 55 55 56 56 56 55 55
39 40 40 40 41 42 42 43 43 44 45 46 46 47 48 48 49 49 50 50 50 51 52 52 52 53 53 54 54 55 55 55 54 54 54 54 54 54 54 54 54 54 53 52
Wind_Direction
233 246 258 260 257 251 247 244 244 243 248 257 262 261 263 265 265 262 259 256 256 255 254 253 253 253 254 258 263 267 268 268 273 273 275 278 283 284 285 291 295 297 301 305
238 248 257 261 263 261 256 251 251 250 247 247 254 259 259 262 263 263 261 258 256 256 254 253 253 254 257 262 264 268 270 269 271 274 279 281 283 286 289 291 293 297 301 304
238 247 256 263 270 268 266 261 259 255 253 251 252 255 259 263 265 265 262 260 258 258 258 258 258 258 259 264 266 268 270 269 270 273 278 281 284 287 290 292 294 297 300 302
241 246 251 260 265 269 271 271 266 258 255 257 259 258 261 263 266 266 263 262 262 260 258 258 261 262 263 266 267 270 270 271 273 277 279 283 285 288 290 292 294 297 299 302
244 248 256 258 264 270 272 271 268 265 262 261 261 261 261 264 268 269 268 265 262 261 260 260 261 264 265 267 268 269 269 271 274 280 282 283 285 287 289 291 292 294 297 300
248 250 255 259 262 266 269 269 265 265 264 263 262 262 264 267 268 270 270 269 264 263 264 264 264 265 267 268 268 270 271 273 276 280 282 284 286 286 288 290 291 294 296 299
250 251 253 256 261 265 265 264 265 264 264 264 264 264 266 267 268 270 270 269 268 266 266 267 267 266 268 270 271 272 274 276 279 282 283 285 286 287 289 291 293 294 296 298
252 251 251 256 260 262 263 264 265 265 265 265 265 264 264 265 266 268 268 268 269 268 267 267 268 269 270 272 274 275 276 278 280 283 285 286 287 288 290 291 292 294 296 298
253 253 255 258 261 263 264 265 265 266 266 265 265 264 264 264 265 266 267 268 268 268 268 268 269 270 271 274 276 278 279 279 281 283 285 286 287 289 290 291 293 295 297 298
253 255 258 258 260 262 263 263 265 266 266 264 264 264 263 263 264 266 267 268 269 269 270 271 271 272 273 275 277 278 280 281 282 284 285 286 287 288 289 291 293 294 296 297
253 254 256 257 259 261 263 264 264 264 264 264 263 263 263 264 266 267 268 269 270 271 271 272 274 275 275 275 277 278 280 281 283 284 285 286 286 288 289 290 292 294 295 296
253 253 255 257 260 263 264 264 263 263 263 263 263 263 264 265 267 269 270 271 273 273 273 274 275 275 276 277 278 278 280 281 283 284 285 286 287 289 290 291 292 293 294 295
253 254 256 259 261 262 262 263 263 263 263 263 264 264 265 267 268 269 271 272 273 273 274 276 277 278 278 278 279 279 280 282 284 285 286 287 288 289 290 291 292 293 294 295
254 256 257 259 260 260 261 262 262 263 264 264 265 265 267 268 269 270 271 272 273 274 275 276 277 278 279 280 280 281 283 283 284 284 285 286 287 289 290 291 292 293 294 294
256 257 258 259 259 259 260 261 262 262 263 264 266 267 267 268 270 271 271 272 273 275 276 277 278 279 280 281 282 283 284 285 285 284 285 286 287 288 290 291 291 292 293 294
256 257 258 259 260 261 261 263 263 263 264 265 266 268 268 269 270 272 273 273 274 276 277 278 279 280 281 282 282 283 284 285 285 285 286 286 287 288 289 290 291 292 292 293
257 257 258 259 260 261 262 263 264 264 265 265 267 268 269 270 272 273 275 276 276 277 278 279 280 280 281 281 282 283 284 285 285 286 286 287 287 288 289 289 290 291 292 293
258 258 259 260 261 261 262 263 264 265 265 266 267 269 270 271 272 273 274 276 277 278 279 280 280 280 281 282 282 283 284 285 285 286 286 287 288 288 288 289 290 290 291 292
259 260 260 260 261 262 263 264 266 267 267 268 269 270 271 272 273 274 275 276 278 278 279 279 280 280 282 282 282 283 284 285 286 286 287 287 288 288 289 289 290 290 291 292
260 261 261 262 262 263 264 266 267 268 268 269 270 271 272 273 273 275 276 277 278 278 279 279 280 281 281 282 283 283 284 285 286 286 287 288 288 289 289 290 290 290 290 291
261 261 262 263 264 264 265 266 267 268 269 270 271 272 272 273 274 275 276 277 278 279 279 280 280 281 281 282 283 283 284 285 286 287 287 288 289 289 289 289 290 290 291 291
261 262 263 264 265 266 266 267 268 270 271 271 272 272 273 274 274 275 276 277 278 279 279 280 281 281 282 282 283 284 285 286 286 287 287 288 289 289 289 289 290 291 290 291
262 263 264 265 265 266 267 268 269 270 272 273 274 274 274 275 276 277 277 278 279 279 280 281 282 283 283 284 285 286 286 286 287 287 287 288 289 289 289 289 290 290 290 291
262 264 265 266 267 267 268 269 270 271 272 274 274 275 276 276 277 278 278 279 279 280 281 282 283 283 284 285 285 286 286 287 287 287 287 287 288 288 288 288 289 289 289 290
263 264 265 267 268 269 270 271 271 272 272 274 275 276 277 278 278 279 279 280 281 282 283 283 284 285 285 286 286 286 287 287 287 287 287 287 288 288 288 288 289 289 289 290
263 264 266 268 269 270 271 272 273 274 274 275 276 278 279 279 280 280 281 281 282 283 284 284 285 286 286 287 287 287 287 287 287 287 287 287 287 288 288 288 289 289 290 290
265 266 267 269 270 272 273 274 275 276 276 277 277 278 279 280 280 281 281 282 283 284 284 285 285 285 286 287 287 287 287 287 287 287 287 288 289 289 290 290 290 290 290 290
Height
5839 5840 5841 5842 5842 5844 5845 5846 5847 5848 5848 5849 5849 5849 5850 5850 5850 5851 5851 5852 5852 5853 5853 5854 5855 5856 5857 5857 5858 5858 5858 5858 5857 5857 5857 5856 5856 5857 5857 5857 5857 5857 5856 5856
5837 5838 5839 5840 5841 5842 5843 5843 5844 5845 5846 5846 5847 5847 5847 5847 5848 5848 5849 5849 5850 5850 5851 5852 5852 5853 5854 5855 5855 5855 5855 5855 5855 5855 5855 5855 5854 5854 5855 5854 5854 5854 5853 5852
5835 5836 5837 5838 5839 5839 5840 5840 5841 5842 5843 5843 5843 5844 5845 5845 5845 5846 5846 5847 5847 5847 5848 5849 5849 5850 5851 5851 5851 5852 5852 5852 5853 5853 5853 5852 5852 5852 5851 5851 5851 5850 5849 5848
5832 5834 5835 5838 5836 5836 5837 5837 5838 5838 5839 5840 5840 5841 5841 5842 5842 5843 5843 5843 5844 5844 5845 5846 5846 5847 5847 5848 5848 5848 5849 5849 5849 5849 5849 5849 5849 5848 5848 5847 5846 5845 5844 5843
5829 5830 5831 5833 5833 5833 5833 5834 5834 5834 5835 5836 5836 5837 5838 5838 5839 5839 5840 5840 5840 5841 5841 5842 5843 5843 5844 5844 5844 5845 5845 5845 5845 5845 5845 5845 5844 5844 5843 5842 5841 5840 5839 5837
5825 5827 5828 5829 5829 5829 5831 5830 5830 5831 5831 5832 5833 5834 5835 5835 5835 5835 5836 5836 5836 5837 5838 5838 5839 5839 5840 5840 5840 5841 5841 5841 5841 5841 5840 5840 5840 5839 5838 5837 5836 5835 5833 5831
5821 5822 5823 5824 5824 5826 5827 5827 5826 5827 5827 5828 5829 5830 5831 5831 5831 5831 5832 5832 5832 5833 5833 5834 5834 5834 5835 5835 5836 5836 5836 5836 5836 5835 5835 5834 5834 5833 5832 5831 5830 5828 5826 5825
5816 5817 5820 5818 5820 5821 5821 5821 5821 5822 5823 5824 5824 5825 5825 5826 5826 5827 5827 5828 5828 5828 5829 5829 5829 5830 5830 5831 5831 5830 5831 5830 5830 5829 5829 5828 5827 5826 5825 5824 5822 5821 5819 5817
5812 5813 5813 5814 5814 5815 5816 5816 5817 5818 5818 5819 5819 5820 5820 5821 5821 5822 5822 5823 5823 5823 5824 5824 5824 5824 5825 5825 5824 5824 5824 5824 5824 5823 5822 5821 5820 5819 5818 5816 5814 5813 5811 5809
5805 5806 5807 5808 5808 5809 5810 5811 5812 5812 5813 5813 5814 5814 5815 5816 5816 5817 5817 5818 5818 5818 5818 5818 5818 5818 5818 5818 5818 5818 5817 5817 5816 5815 5815 5814 5812 5811 5810 5808 5806 5804 5802 5800
5798 5800 5800 5801 5802 5803 5804 5805 5806 5806 5807 5807 5808 5809 5809 5810 5811 5811 5811 5812 5812 5812 5812 5812 5812 5812 5811 5811 5811 5810 5810 5809 5808 5807 5806 5805 5804 5803 5801 5799 5797 5795 5792 5790
5791 5792 5793 5794 5795 5797 5798 5799 5800 5800 5801 5802 5802 5803 5803 5804 5804 5805 5805 5805 5805 5805 5805 5805 5805 5804 5804 5803 5803 5802 5802 5801 5800 5799 5798 5796 5795 5793 5791 5790 5787 5784 5782 5779
5783 5784 5785 5787 5789 5790 5791 5792 5793 5794 5794 5795 5795 5796 5797 5797 5797 5798 5798 5798 5798 5798 5797 5797 5797 5796 5796 5795 5794 5793 5793 5792 5791 5789 5788 5786 5785 5783 5781 5779 5776 5773 5770 5767
5775 5776 5778 5779 5781 5782 5783 5784 5785 5786 5787 5788 5788 5789 5789 5789 5790 5790 5790 5790 5790 5790 5789 5789 5788 5788 5787 5786 5785 5784 5783 5781 5780 5779 5777 5776 5774 5771 5769 5767 5765 5762 5758 5755
5767 5768 5769 5771 5772 5773 5775 5776 5777 5778 5779 5779 5780 5781 5781 5781 5781 5782 5781 5781 5781 5781 5780 5780 5779 5778 5777 5776 5775 5773 5772 5770 5769 5767 5766 5764 5762 5759 5757 5754 5752 5749 5746 5743
5759 5760 5761 5762 5764 5765 5766 5767 5768 5769 5770 5770 5771 5772 5772 5772 5772 5772 5772 5772 5771 5771 5770 5770 5769 5768 5766 5765 5763 5762 5760 5759 5757 5755 5753 5751 5749 5746 5744 5741 5738 5735 5732 5729
5750 5751 5752 5753 5755 5756 5756 5757 5758 5759 5760 5761 5762 5762 5762 5762 5762 5762 5762 5761 5761 5760 5759 5758 5757 5756 5754 5753 5751 5750 5748 5746 5744 5741 5739 5737 5735 5732 5729 5727 5724 5721 5718 5714
5740 5742 5743 5744 5745 5746 5747 5748 5748 5749 5750 5751 5751 5752 5752 5752 5752 5752 5751 5750 5750 5749 5748 5747 5745 5743 5742 5740 5738 5736 5734 5732 5730 5728 5725 5723 5720 5717 5714 5712 5709 5706 5702 5699
5730 5731 5732 5734 5735 5736 5737 5738 5739 5739 5740 5740 5740 5740 5740 5740 5740 5739 5739 5738 5738 5737 5735 5734 5732 5730 5728 5727 5724 5722 5720 5718 5716 5713 5710 5707 5704 5701 5699 5696 5693 5690 5686 5682
5719 5720 5721 5722 5724 5725 5726 5727 5728 5728 5728 5728 5728 5728 5728 5728 5727 5727 5726 5726 5725 5723 5722 5720 5718 5716 5714 5712 5710 5708 5705 5703 5700 5698 5695 5692 5689 5685 5682 5679 5676 5672 5669 5665
5708 5709 5710 5711 5713 5713 5714 5715 5716 5716 5716 5716 5716 5716 5715 5715 5714 5714 5713 5712 5711 5709 5707 5706 5704 5702 5699 5697 5695 5692 5690 5687 5685 5682 5679 5676 5672 5669 5665 5662 5658 5655 5651 5647
5696 5697 5699 5700 5701 5702 5702 5703 5703 5703 5703 5703 5703 5702 5702 5702 5701 5700 5699 5698 5696 5695 5693 5691 5689 5686 5684 5681 5679 5676 5674 5671 5668 5665 5662 5659 5655 5652 5648 5644 5641 5637 5633 5629
5685 5686 5687 5688 5689 5689 5690 5690 5690 5690 5690 5690 5689 5689 5688 5687 5686 5685 5685 5683 5681 5679 5678 5676 5673 5670 5668 5665 5662 5659 5657 5654 5651 5648 5644 5641 5638 5634 5631 5627 5623 5620 5616 5612
5673 5674 5675 5675 5676 5677 5677 5678 5677 5677 5677 5676 5675 5675 5674 5673 5672 5671 5669 5668 5666 5664 5662 5659 5657 5654 5651 5648 5645 5642 5639 5636 5633 5630 5627 5623 5620 5617 5613 5609 5606 5602 5598 5595
5661 5662 5663 5663 5664 5664 5665 5665 5664 5664 5663 5663 5662 5661 5660 5658 5657 5656 5654 5652 5650 5648 5646 5643 5640 5637 5634 5631 5628 5625 5622 5619 5616 5612 5609 5606 5603 5599 5596 5592 5588 5584 5581 5577
5648 5649 5650 5650 5651 5651 5651 5651 5651 5650 5650 5649 5648 5647 5645 5643 5641 5640 5638 5636 5634 5632 5629 5626 5624 5621 5617 5614 5611 5608 5605 5601 5598 5595 5592 5588 5585 5582 5578 5574 5570 5567 5563 5559
5636 5637 5637 5638 5638 5638 5638 5637 5637 5636 5635 5634 5633 5632 5630 5628 5626 5624 5622 5620 5618 5615 5613 5610 5607 5604 5601 5598 5594 5591 5587 5584 5581 5578 5574 5571 5568 5564 5560 5557 5553 5549 5546 5542